Погода в Подовинном

Россия / Челябинская область     54°13′59″N   62°31′15″E
темп.,
°C
ветер,
м/с
пор.,
м/с
влажн.,
%
обл.,
%
осадки,
мм/ч
давл.,
гПа
погр.,
м
14 мая, пт
пт1423:00+20св224220 0.0 102511
02:00+19св11435 0.0 102511
05:00+18с11465 0.0 102611
08:00+22вюв113819 0.0 1026186
11:00+27ю22265 0.0 10261836
14:00+30з12225 0.0 10252743
17:00+30зюз23215 0.0 10243128
20:00+27ююв222821 0.0 102312
15 мая, сб
сб1523:00+25ю363099 0.0 1023122
02:00+20зюз454254 0.0 102372
05:00+18зсз33395 0.0 102436
08:00+23ссз23405 0.0 1024272
11:00+28ссз33295 0.0 10231169
14:00+30зсз44235 0.0 10223055
17:00+30зсз45205 0.0 10212973
20:00+26зсз223298 0.1 102016
16 мая, вс
вс1623:00+21зсз494525 0.9 1021125
02:00+20сз485185 0.1 1021116
05:00+18сз34575 0.1 102255
08:00+24сз34428 0.0 1022244
11:00+29зсз34275 0.0 10211343
14:00+31зсз442220 0.0 10202556
17:00+32з44205 0.0 10193053
20:00+28сз22299 0.0 101911
17 мая, пн
пн1723:00+23з333570 0.0 101931
02:00+21сз224098 0.0 101917
05:00+19с224833 0.0 102017
08:00+25зсз22375 0.0 1020287
11:00+29зсз23273 0.0 10191470
14:00+31зсз46205 0.0 10183728
17:00+31сз46191 0.0 10173314
20:00+25с23391 0.0 101635
18 мая, вт
вт1823:00+23юз124024 0.1 101719
02:00+21юз4548100 0.3 101768
05:00+19зсз3552100 0.3 101668
08:00+22сз354689 0.1 1016280
11:00+27зсз4634100 0.1 10161016
14:00+28зсз5929100 0.0 10143041
17:00+28ссз7102963 0.0 10133026
20:00+20зюз6106297 0.2 1015416